User: anonymous   Login
Location: Vancouver
(49.2500°N, 123.1330°W)
Time: 14:20:12
(UTC-07:00)
Language:

Iridium 21 - Orbit

View from above orbital plane
View from above orbital plane
View from above satellite
View from above satellite

Ground track
Ground track

The orbit data is extracted from the following two-line orbital elements,

1 25778U 99032B   14297.42741890  .00000413  00000-0  14028-3 0  9424
2 25778 086.3944 268.0354 0002247 095.6582 015.1380 14.34219648809549
Epoch (UTC): 24 October 2014 10:15:28
Eccentricity: 0.0002247
inclination: 86.3944°
perigee height: 776 km
apogee height: 779 km
right ascension of ascending node: 268.0354°
argument of perigee: 95.6582°
revolutions per day: 14.34219648
mean anomaly at epoch: 15.1380°
orbit number at epoch: 80954

The dashed part of the orbit path shows where the satellite is in the earth's shadow,  

DLR